Location: *
(40.7190°N, 4.2480°W)
Time: 06:57:58
(UTC+00:00)

Cosmos 482 Debris - Pass Details

Date: 18 February 2020
Orbit: 200 x 2282 km, 52.1° (Epoch: 30 March)

Event Time Altitude Azimuth Distance (km) Brightness Sun altitude
Exits shadow 04:48:18 - 57° (ENE) 1,639 7.8 -27.1°
Enters shadow 06:05:06 -60° 293° (WNW) 12,966 11.1 -12.5°
Maximum altitude 06:41:00 41° 35° (NE) 316 3.4 -5.8°
